Regional Weather Roundup
Issued by NWS

Home | Current Version | Previous Version | Text Only | Print | Product List | Glossary On
Versions: 1 2 3 4 5 6 7 8 9 10 11 12 13 14 15 16 17 18 19 20 21 22 23 24 25 26 27 28
000
ASUS44 KLIX 282113
RWRLA
LOUISIANA WEATHER ROUNDUP
NATIONAL WEATHER SERVICE NEW ORLEANS LA
400 PM CDT FRI APR 28 2017

NOTE: "FAIR" INDICATES FEW OR NO CLOUDS BELOW 12,000 FEET WITH NO
      SIGNIFICANT WEATHER AND/OR OBSTRUCTIONS TO VISIBILITY.
      SKY/WX - SKY CONDITION AND SIGNIFICANT WEATHER.
      TMP - AIR TEMPERATURE.    DP   - DEWPOINT TEMPERATURE.
      RH  - RELATIVE HUMIDITY.  PRES - PRESSURE.
      HX  - HEAT INDEX.         WCI  - WIND CHILL INDEX.

*  THESE STATIONS ARE NOT NWS OR FAA STATIONS AND ARE NOT UNDER
   NWS QUALITY CONTROL.

LAZ040-048-061>063-065-066-069-282200-
SOUTHEAST LOUISIANA

CITY           SKY/WX    TMP DP  RH WIND       PRES   REMARKS
N.O. INTL ARPT PTSUNNY   83  74  74 S14G29    29.87F
N.O. LAKEFRONT CLOUDY    85  74  69 S21G26    29.88F
N.O. DOWNTOWN*   N/A     84  74  71 S15G26      N/A
RESERVE*       NOT AVBL
SLIDELL        CLOUDY    83  75  77 S13G24    29.89S
BATON ROUGE    PTSUNNY   86  71  60 S20       29.83S
BOOTHVILLE     PTSUNNY   82  77  84 SE17G26   29.90F
BELLE CHASSE   CLOUDY    82  75  79 S18G25    29.88F
BOGALUSA*      NOT AVBL
GALLIANO*      CLOUDY    83  73  72 S18G24    29.87F
NEW ROADS*     MOCLDY    87  74  64 SE17G25   29.82R HX  95
GONZALES*      MOCLDY    85  73  65 SE15G22   29.83F
HAMMOND*       CLOUDY    84  72  65 S16G26    29.87S
HOUMA*         CLOUDY    81  75  83 SE18      29.86F HAZE
PORT FOURCHON* PTCLDY    81  75  83 SE14G22   29.86F HAZE

$$

LAZ041-044-053-054-282200-
SOUTHWEST LOUISIANA

CITY           SKY/WX    TMP DP  RH WIND       PRES   REMARKS
LAKE CHARLES   CLOUDY    81  74  79 SE18G26   29.76S HAZE
LAFAYETTE      CLOUDY    85  75  72 S12G22    29.81S
PATTERSON      CLOUDY    82  75  79 S12G22    29.84S
SALT POINT       N/A     80  75  84 VRB7G17     N/A
NEW IBERIA     CLOUDY    83  73  72 S17G26    29.82F
CHENAULT AIRPK CLOUDY    70  64  83 S17G23    29.77S

$$

LAZ027-028-282200-
CENTRAL LOUISIANA

CITY           SKY/WX    TMP DP  RH WIND       PRES   REMARKS
FORT POLK      PTSUNNY   87  73  62 S22       29.72F
ALEXANDRIA INT PTSUNNY   87  74  64 S21G28    29.73  HX  95
ALEXANDRIA     PTSUNNY   86  75  69 S13G23    29.75F HX  95

$$

LAZ001-002-282200-
NORTHWEST LOUISIANA

CITY           SKY/WX    TMP DP  RH WIND       PRES   REMARKS
SHREVEPORT     MOSUNNY   87  74  64 S17G23    29.66F HX  95
BARKSDALE AFB  MOSUNNY   86  73  66 S20G25    29.66F
DTN SHREVEPORT PTSUNNY   88  71  57 S16G26    29.66F

$$

LAZ014-016-282200-
NORTHEAST LOUISIANA

CITY           SKY/WX    TMP DP  RH WIND       PRES   REMARKS
MONROE         PTSUNNY   88  72  58 S12G20    29.74S
TALLULAH       MOSUNNY   88  71  57 S10G23    29.78S

$$





USA.gov is the U.S. government's official web portal to all federal, state and local government web resources and services.